EST,Max TemperatureF,Mean TemperatureF,Min TemperatureF,Max Dew PointF,MeanDew PointF,Min DewpointF,Max Humidity, Mean Humidity, Min Humidity, Max Sea Level PressureIn, Mean Sea Level PressureIn, Min Sea Level PressureIn, Max VisibilityMiles, Mean VisibilityMiles, Min VisibilityMiles, Max Wind SpeedMPH, Mean Wind SpeedMPH, Max Gust SpeedMPH,PrecipitationIn, CloudCover, Events, WindDirDegrees
2012-11-1,64,48,33,29,24,15,75,47,16,30.03,29.97,29.92,10,10,10,8,1,,0.00,0,,340
2012-11-2,75,54,36,46,40,29,86,63,35,30.02,29.98,29.92,10,10,10,6,1,,0.00,1,,-1
2012-11-3,80,59,39,52,44,38,97,67,34,30.12,30.04,29.99,10,10,10,4,0,,0.00,0,,-1
2012-11-4,66,58,46,58,51,39,100,77,47,30.06,30.01,29.97,10,10,4,7,1,,0.01,3,Rain,340
2012-11-5,62,49,36,46,35,26,97,66,25,30.12,30.03,29.94,10,10,7,6,0,,0.00,1,Rain,10
2012-11-6,50,48,46,47,45,42,100,93,74,30.01,29.96,29.92,10,6,2,9,3,17,1.40,8,Rain,41
2012-11-7,51,45,39,46,44,39,100,92,71,30.07,29.94,29.90,10,6,2,9,1,,0.11,7,Rain,4
2012-11-8,60,48,35,41,37,32,100,82,35,30.22,30.16,30.08,10,7,2,12,1,,0.00,1,,350
2012-11-9,64,47,30,42,36,29,100,79,33,30.33,30.25,30.21,10,8,5,5,0,,0.00,0,,-1
2012-11-10,71,52,34,44,38,34,100,73,27,30.37,30.30,30.25,10,9,6,7,1,,0.00,0,,109
2012-11-11,66,51,36,52,45,36,100,75,52,30.41,30.33,30.27,10,10,8,12,3,22,0.00,1,,124
2012-11-12,64,55,43,63,55,38,100,92,75,30.33,30.25,30.16,10,8,1,9,4,,0.52,7,Rain,134
2012-11-13,54,45,35,34,30,28,85,63,38,30.38,30.33,30.29,10,10,10,9,5,,0.00,0,,348
2012-11-14,53,40,28,39,33,29,100,66,48,30.40,30.32,30.28,10,10,9,10,2,18,0.00,5,,80
2012-11-15,59,50,39,44,40,36,100,74,49,30.32,30.27,30.21,10,10,9,8,3,,0.00,6,,62
2012-11-16,59,46,33,45,37,31,100,89,40,30.35,30.30,30.25,10,5,0,4,0,,0.00,2,Fog,50
2012-11-17,63,46,30,36,32,29,100,72,29,30.45,30.38,30.33,10,9,4,8,2,17,0.00,0,,73
2012-11-18,64,47,30,44,38,29,96,71,46,30.42,30.36,30.30,10,10,10,10,2,,0.00,4,,49
2012-11-19,63,50,36,46,41,36,100,76,43,30.33,30.27,30.19,10,10,7,7,0,,0.00,5,,20
2012-11-20,68,56,43,44,43,41,97,75,37,30.20,30.13,30.06,10,10,10,4,0,,0.00,2,,-1
2012-11-21,69,53,37,46,42,38,100,74,38,30.18,30.14,30.09,10,10,8,6,1,,0.00,1,,342
2012-11-22,69,52,35,44,39,34,100,74,31,30.27,30.20,30.16,10,9,4,8,1,,0.00,0,,135
2012-11-23,68,52,35,51,43,35,100,77,45,30.20,30.13,30.05,10,9,6,6,1,,0.00,2,,320
2012-11-24,48,38,28,32,24,18,78,56,30,30.22,30.16,30.12,10,10,9,7,4,16,0.00,0,,340
2012-11-25,57,40,24,25,21,14,88,60,18,30.22,30.15,30.08,10,10,7,5,0,,0.00,0,,225
2012-11-26,66,46,27,43,29,23,89,56,22,30.24,30.17,30.10,10,9,6,6,1,,0.00,2,,0
2012-11-27,54,50,44,50,45,39,96,80,64,30.26,30.16,30.09,10,9,7,12,2,18,0.03,8,Rain,352
2012-11-28,55,44,30,38,32,18,100,76,25,30.41,30.35,30.26,10,9,5,8,2,,0.00,2,,348
2012-11-29,61,44,26,37,31,24,96,75,33,30.45,30.38,30.32,10,10,7,7,1,,0.00,0,,147
2012-11-30,62,47,32,48,40,31,100,78,56,30.39,30.32,30.26,10,10,7,5,1,,0.00,5,,110